User: anonymous
Location: Wawayanda State Park
(41.1833°N, 74.4333°W)
Time: 20:19:54
(UTC-04:00)
Language:

Landsat 7 - Orbit

View from above orbital plane
View from above orbital plane
View from above satellite
View from above satellite

Ground track
Ground track

The orbit data is extracted from the following two-line orbital elements,

1 25682U 99020A   14274.11393621  .00000454  00000-0  11090-3 0  6654
2 25682 098.2277 342.3247 0001065 066.6474 293.4851 14.57094981822417
Epoch (UTC): 01 October 2014 02:44:04
Eccentricity: 0.0001065
inclination: 98.2277°
perigee height: 702 km
apogee height: 703 km
right ascension of ascending node: 342.3247°
argument of perigee: 66.6474°
revolutions per day: 14.57094981
mean anomaly at epoch: 293.4851°
orbit number at epoch: 82241

The dashed part of the orbit path shows where the satellite is in the earth's shadow,  

DLR